FENGYUN 1C DEB

Satellite information

Favourite Embed

Satellite Type and Status

DEBRISIN ORBIT

Key statistics

Satellite FENGYUN 1C DEB at a glance.

Uptime

9493

Days in orbit

Revolutions

≈ 14.3

Per day

Orbit

SSO

Sun Synchronous Orbit

Inclination

98.8

Latest

Satellite identification and parameters

Extended collection of information and parameters for FENGYUN 1C DEB.

Object identification

Identified? True

Debris? True

Object name: FENGYUN 1C DEB

International designator: 1999-025ADU

Object number (NORAD): 30405

Object ID (CCSDS): 30405

Country: PEOPLES REPUBLIC OF CHINA (PRC)

Current information (Y/N): Y

RCS size: SMALL

Orbital parameters

Period: 100.913 minutes

Inclination: 98.7921 deg

SMA: 7179.993 km

Apoapsis: 839.597 km

Periapsis: 764.118 km

RAAN: 218.0198 deg

Eccentricy: 0.0052562

Argument of periapsis: 80.2483 deg

Mean anomaly: 47.8853 deg

Mean motion: 14.26976287 rev/day

Mean motion (dot): 0.00005116 rev/day2

B* drag term: 0.0020899 1/REarth

Two-line elements (TLE)

Creation date: May 6, 2025, 3:54 a.m.

Reference frame: TEME

Reference center: EARTH

Epoch: May 5, 2025, 11:42 a.m. UTC

TLE line 0: 0 FENGYUN 1C DEB

TLE line 1: 1 30405U 99025ADU 25125.48795773 .00005116 00000-0 20899-2 0 9995

TLE line 2: 2 30405 98.7921 218.0198 0052562 80.2483 47.8853 14.26976287942387

Live tracking on map

Real-time ground track for satellite FENGYUN 1C DEB.

In-orbit conjunctions

A list of the most updated potential collisions computed for object FENGYUN 1C DEB.

Target Orbit TCA Probability of collision Miss distance Type
IRS P2 R/B SSO 2025-02-26 08:53:03 0.0001223686 807.0 (m) ROCKET BODY
CZ-6A DEB LEO 2025-02-22 05:48:00 0.000128127 130.0 (m) DEBRIS
CZ-6A DEB LEO 2024-11-30 05:25:48 0.0001492649 755.0 (m) DEBRIS
CZ-6A DEB LEO 2024-11-27 03:15:13 0.0001165773 891.0 (m) DEBRIS
METEOR 1-22 LEO 2024-10-01 13:30:44 0.0001773514 765.0 (m) PAYLOAD

Associated space launch

Chinese polar orbiting meteorological satellite

FENGYUN 1C DEB was lifted into orbit during the mission ‘Long March 4B | Feng Yun 1C’, on board a Long March 4B space rocket.

The launch took place on May 10, 1999, 1:33 a.m. from Launch Complex 7.

For more information about the launch, click the button.

Launch to space Long March 4B | Feng Yun 1C
Long March 4B | Feng Yun 1C

Agency: N/A

Status: Launch Successful

Launch date: May 10, 1999, 1:33 a.m. UTC

Rocket: Long March 4B

Launch pad: Launch Complex 7

Location: Taiyuan Satellite Launch Center, People's Republic of China

...

Latest news about this satellite

There are no fresh news available about this satellite. Check back as we update our databases every day.


Newsletter sign-up

Weekly statistics, charts and insights to help you stay on top of the space industry.